When you browse on this site, cookies collect data to enhance your experience and personalize the content and advertising you see.
Visit our Privacy Policy to learn more. By continuing to use the site, you agree to this use of cookies and data.
  • In Germany
  • List of Countries
  • For 7 days
  • Water Temperature
  • Weather Map
  • Weather Widgets
  • user-avatar
    Login

    Hourly Weather Belyakovka

    Today, 17 October, Thursday

    Time Temperature Precipitation Wind Pressure Humidity
    00:00 -2°C° 0 mm 4 mps 746 mmHg 81%
    01:00 -2°C° 0 mm 4 mps 746 mmHg 81%
    02:00 -1°C° 0 mm 3 mps 747 mmHg 81%
    03:00 -2°C° 0 mm 3 mps 748 mmHg 81%
    04:00 -2°C° 0 mm 3 mps 748 mmHg 83%
    05:00 -2°C° 0 mm 3 mps 748 mmHg 81%
    06:00 -2°C° 0 mm 3 mps 748 mmHg 80%
    07:00 -3°C° 0 mm 4 mps 749 mmHg 79%
    08:00 -2°C° 0 mm 4 mps 749 mmHg 75%
    09:00 0°C° 0 mm 3 mps 749 mmHg 72%
    10:00 0°C° 0 mm 3 mps 749 mmHg 68%
    11:00 0°C° 0 mm 3 mps 749 mmHg 67%
    12:00 +1°C° 0 mm 3 mps 749 mmHg 66%
    13:00 +1°C° 0 mm 3 mps 749 mmHg 65%
    14:00 +1°C° 0 mm 3 mps 749 mmHg 66%
    15:00 +1°C° 0 mm 2 mps 749 mmHg 68%
    16:00 +1°C° 0 mm 2 mps 749 mmHg 69%
    17:00 +1°C° 0 mm 2 mps 749 mmHg 73%
    18:00 +2°C° 0 mm 1 mps 748 mmHg 76%
    19:00 +1°C° 0 mm 1 mps 748 mmHg 80%
    20:00 +1°C° 0.2 mm 1 mps 748 mmHg 85%
    21:00 +1°C° 0.2 mm 1 mps 748 mmHg 91%
    22:00 +1°C° 0.2 mm 1 mps 747 mmHg 96%
    23:00 -1°C° 0.2 mm 2 mps 747 mmHg 96%

    Tomorrow, 18 October, Friday

    Time Temperature Precipitation Wind Pressure Humidity
    00:00 -1°C° 0.2 mm 2 mps 746 mmHg 97%
    01:00 -1°C° 0.2 mm 2 mps 745 mmHg 97%
    02:00 -1°C° 0.4 mm 2 mps 745 mmHg 97%
    03:00 -1°C° 0.4 mm 2 mps 744 mmHg 97%
    04:00 -1°C° 0.4 mm 2 mps 744 mmHg 97%
    05:00 -1°C° 0.2 mm 2 mps 744 mmHg 97%
    06:00 -1°C° 0.2 mm 2 mps 743 mmHg 97%
    07:00 -1°C° 0.2 mm 2 mps 743 mmHg 97%
    08:00 -1°C° 0.3 mm 3 mps 743 mmHg 96%
    09:00 -1°C° 0.3 mm 3 mps 743 mmHg 96%
    10:00 0°C° 0.3 mm 3 mps 743 mmHg 95%
    11:00 0°C° 0.1 mm 3 mps 743 mmHg 95%
    12:00 0°C° 0.1 mm 3 mps 743 mmHg 95%
    13:00 -1°C° 0.1 mm 4 mps 743 mmHg 95%
    14:00 -1°C° 0.2 mm 4 mps 743 mmHg 95%
    15:00 -2°C° 0.2 mm 4 mps 744 mmHg 96%
    16:00 -2°C° 0.2 mm 4 mps 744 mmHg 96%
    17:00 -2°C° 0.1 mm 4 mps 744 mmHg 95%
    18:00 -3°C° 0.1 mm 4 mps 745 mmHg 94%
    19:00 -3°C° 0.1 mm 4 mps 745 mmHg 93%
    20:00 -3°C° 0 mm 4 mps 746 mmHg 92%
    21:00 -4°C° 0 mm 4 mps 746 mmHg 90%
    22:00 -4°C° 0 mm 4 mps 747 mmHg 89%
    23:00 -5°C° 0 mm 3 mps 747 mmHg 89%

    Day after tomorrow, 19 October, Saturday

    Time Temperature Precipitation Wind Pressure Humidity
    00:00 -5°C° 0 mm 3 mps 748 mmHg 89%
    01:00 -6°C° 0 mm 3 mps 748 mmHg 89%
    02:00 -7°C° 0 mm 3 mps 749 mmHg 90%
    03:00 -6°C° 0 mm 2 mps 749 mmHg 91%
    04:00 -7°C° 0 mm 2 mps 750 mmHg 91%
    05:00 -7°C° 0 mm 2 mps 750 mmHg 91%
    06:00 -7°C° 0 mm 2 mps 751 mmHg 91%
    07:00 -7°C° 0 mm 2 mps 751 mmHg 90%
    08:00 -6°C° 0 mm 2 mps 752 mmHg 84%
    09:00 -4°C° 0 mm 2 mps 752 mmHg 77%
    10:00 -4°C° 0 mm 3 mps 753 mmHg 70%
    11:00 -3°C° 0 mm 2 mps 753 mmHg 68%
    12:00 -2°C° 0 mm 2 mps 753 mmHg 65%
    13:00 -1°C° 0 mm 2 mps 753 mmHg 63%
    14:00 -2°C° 0 mm 2 mps 753 mmHg 66%
    15:00 0°C° 0 mm 1 mps 753 mmHg 70%
    16:00 -1°C° 0 mm 1 mps 753 mmHg 73%
    17:00 -2°C° 0 mm 1 mps 754 mmHg 77%
    18:00 -3°C° 0 mm 1 mps 754 mmHg 81%
    19:00 -4°C° 0 mm 1 mps 754 mmHg 84%
    20:00 -4°C° 0 mm 1 mps 755 mmHg 85%
    21:00 -4°C° 0 mm 1 mps 755 mmHg 86%
    22:00 -4°C° 0 mm 1 mps 755 mmHg 87%
    23:00 -4°C° 0 mm 1 mps 755 mmHg 88%

    20 October, Sunday

    Time Temperature Precipitation Wind Pressure Humidity
    00:00 -6°C° 0 mm 1 mps 755 mmHg 89%
    01:00 -6°C° 0 mm 1 mps 755 mmHg 90%
    02:00 -6°C° 0 mm 1 mps 755 mmHg 91%
    03:00 -6°C° 0 mm 1 mps 755 mmHg 92%
    04:00 -7°C° 0 mm 2 mps 755 mmHg 93%
    05:00 -7°C° 0 mm 2 mps 755 mmHg 93%
    06:00 -7°C° 0 mm 2 mps 755 mmHg 93%
    07:00 -7°C° 0 mm 2 mps 755 mmHg 93%
    08:00 -5°C° 0 mm 2 mps 755 mmHg 86%
    09:00 -5°C° 0 mm 3 mps 755 mmHg 79%
    10:00 -2°C° 0 mm 3 mps 755 mmHg 72%
    11:00 -2°C° 0 mm 3 mps 754 mmHg 72%
    12:00 -1°C° 0 mm 3 mps 754 mmHg 72%
    13:00 0°C° 0 mm 3 mps 754 mmHg 72%
    14:00 0°C° 0 mm 3 mps 753 mmHg 76%
    15:00 0°C° 0 mm 3 mps 753 mmHg 80%
    16:00 +1°C° 0 mm 2 mps 753 mmHg 83%
    17:00 0°C° 0 mm 3 mps 753 mmHg 85%
    18:00 0°C° 0 mm 3 mps 753 mmHg 87%
    19:00 0°C° 0 mm 3 mps 752 mmHg 88%
    20:00 +1°C° 0 mm 3 mps 752 mmHg 89%
    21:00 +1°C° 0 mm 3 mps 752 mmHg 90%
    22:00 0°C° 0 mm 4 mps 751 mmHg 90%
    23:00 0°C° 0 mm 4 mps 751 mmHg 90%

    21 October, Monday

    Time Temperature Precipitation Wind Pressure Humidity
    00:00 0°C° 0 mm 4 mps 750 mmHg 89%
    01:00 0°C° 0 mm 4 mps 750 mmHg 89%
    02:00 0°C° 0 mm 4 mps 749 mmHg 88%
    03:00 0°C° 0 mm 4 mps 749 mmHg 88%
    04:00 0°C° 0 mm 4 mps 748 mmHg 88%
    05:00 +1°C° 0.2 mm 4 mps 748 mmHg 88%
    06:00 +1°C° 0.2 mm 5 mps 747 mmHg 88%
    07:00 +1°C° 0.2 mm 5 mps 746 mmHg 89%
    08:00 +2°C° 0.2 mm 5 mps 746 mmHg 89%
    09:00 +2°C° 0.2 mm 5 mps 746 mmHg 89%
    10:00 +3°C° 0.2 mm 5 mps 745 mmHg 89%
    11:00 +3°C° 0 mm 5 mps 745 mmHg 90%
    12:00 +4°C° 0 mm 4 mps 745 mmHg 91%
    13:00 +4°C° 0 mm 4 mps 745 mmHg 91%
    14:00 +4°C° 0.3 mm 4 mps 745 mmHg 92%
    15:00 +4°C° 0.3 mm 4 mps 745 mmHg 94%
    16:00 +4°C° 0.3 mm 4 mps 745 mmHg 95%
    17:00 +4°C° 0.3 mm 4 mps 744 mmHg 95%
    18:00 +4°C° 0.3 mm 3 mps 744 mmHg 95%
    19:00 +4°C° 0.3 mm 3 mps 744 mmHg 95%
    20:00 +4°C° 0.1 mm 3 mps 744 mmHg 95%
    21:00 +4°C° 0.1 mm 3 mps 743 mmHg 95%
    22:00 +4°C° 0.1 mm 3 mps 743 mmHg 96%
    23:00 +4°C° 0.3 mm 3 mps 742 mmHg 96%

    22 October, Tuesday

    Time Temperature Precipitation Wind Pressure Humidity
    00:00 +5°C° 0.3 mm 3 mps 742 mmHg 95%
    01:00 +5°C° 0.3 mm 3 mps 741 mmHg 95%
    02:00 +5°C° 0.6 mm 4 mps 740 mmHg 95%
    03:00 +6°C° 0.6 mm 4 mps 739 mmHg 94%
    04:00 +6°C° 0.6 mm 5 mps 738 mmHg 94%
    05:00 +7°C° 1.1 mm 5 mps 737 mmHg 92%
    06:00 +7°C° 1.1 mm 5 mps 737 mmHg 91%
    07:00 +8°C° 1.1 mm 6 mps 736 mmHg 90%
    08:00 +8°C° 0.1 mm 6 mps 736 mmHg 89%
    09:00 +8°C° 0.1 mm 5 mps 736 mmHg 87%
    10:00 +8°C° 0.1 mm 5 mps 736 mmHg 85%
    11:00 +9°C° 0 mm 5 mps 736 mmHg 83%
    12:00 +9°C° 0 mm 5 mps 737 mmHg 80%
    13:00 +9°C° 0 mm 6 mps 737 mmHg 77%
    14:00 +8°C° 0 mm 5 mps 737 mmHg 79%
    15:00 +8°C° 0 mm 4 mps 738 mmHg 81%
    16:00 +8°C° 0 mm 3 mps 738 mmHg 83%
    17:00 +7°C° 0 mm 3 mps 739 mmHg 84%
    18:00 +7°C° 0 mm 3 mps 739 mmHg 86%
    19:00 +5°C° 0 mm 3 mps 739 mmHg 87%
    20:00 +4°C° 0 mm 3 mps 739 mmHg 89%
    21:00 +4°C° 0 mm 2 mps 739 mmHg 91%
    22:00 +3°C° 0 mm 2 mps 740 mmHg 92%
    23:00 +3°C° 0 mm 2 mps 740 mmHg 93%
    Show more